Tracking 19177 objects as of 24-May-2018
HD Live streaming from Space Station
objects crossing your sky now

COSMOS 2521

Track COSMOS 2521 now!
10-day predictions
COSMOS 2521 is classified as:


NORAD ID: 42919
Int'l Code: 2017-037D
Perigee: 354.9 km
Apogee: 374.7 km
Inclination: 97.9 °
Period: 91.7 minutes
Semi major axis: 6735 km
RCS: Unknown
Launch date: June 23, 2017
Source: Commonwealth of Independent States (former USSR) (CIS)
Launch site: PLESETSK MISSILE AND SPACE COMPLEX (PKMTR)
Uplink (MHz):
Downlink (MHz):
Beacon (MHz):
Mode:
Call sign:
Status:

aabbcc
Your satellite tracking list
Your tracking list is empty




NASA's NSSDC Master Catalog

Two Line Element Set (TLE):
1 42919U 17037D   18143.50001824  .00010679  00000-0  88102-4 0  9996
2 42919  97.9020 212.4394 0014667  87.9247  15.3379 15.70425673 40383
Source of the keplerian elements: AFSPC